KD2RHT-13 Weather Reports


Display with metric or nautical units.
time (UTC)temp
F
wind
direction
speed
MPH
gust
MPH
rain 1hr
in
rain 24hr
in
rain mn
in
humidity
%
barometer
mb
20260510150309 56 253 4.0 5.0 0.00 0.01 0.01 62 1015.9
20260510145805 55 171 2.0 3.0 0.00 0.01 0.01 65 1016.2
20260510145305 56 311 3.0 5.0 0.00 0.01 0.01 63 1015.9
20260510144759 57 207 3.0 3.0 0.00 0.01 0.01 63 1015.9
20260510144255 58 126 1.0 2.0 0.00 0.01 0.01 68 1015.6
20260510143750 55 317 3.0 3.0 0.00 0.01 0.01 69 1015.6
20260510143246 55 177 2.0 3.0 0.00 0.01 0.01 70 1015.6
20260510142743 53 211 1.0 2.0 0.00 0.01 0.01 70 1015.6
20260510142240 54 190 2.0 2.0 0.00 0.01 0.01 71 1015.6
20260510141737 54 164 0.0 1.0 0.00 0.01 0.01 72 1015.6
20260510141235 55 177 1.0 1.0 0.00 0.01 0.01 71 1015.6
20260510140732 55 155 1.0 1.0 0.00 0.01 0.01 71 1015.2
20260510140232 54 83 0.0 0.0 0.00 0.01 0.01 76 1015.2
20260510135726 53 236 2.0 2.0 0.00 0.01 0.01 75 1015.2
20260510135222 53 143 0.0 1.0 0.00 0.01 0.01 74 1015.2
20260510134719 53 165 0.0 1.0 0.00 0.01 0.01 75 1015.2
20260510134217 52 223 2.0 3.0 0.00 0.01 0.01 75 1015.2
20260510133712 52 312 5.0 5.0 0.00 0.01 0.01 75 1014.9
20260510133208 52 276 4.0 5.0 0.00 0.01 0.01 75 1015.2
20260510132704 52 152 0.0 0.0 0.00 0.01 0.01 75 1014.9
20260510132202 52 165 0.0 0.0 0.00 0.01 0.01 76 1014.9
20260510131659 52 231 2.0 2.0 0.00 0.01 0.01 77 1014.9
20260510131157 51 146 1.0 2.0 0.00 0.01 0.01 75 1015.2
20260510130653 51 158 1.0 1.0 0.00 0.01 0.01 78 1015.2
20260510130150 51 254 1.0 2.0 0.00 0.01 0.01 79 1015.2
20260510125646 51 109 1.0 3.0 0.00 0.01 0.01 78 1015.2
20260510125143 50 160 0.0 0.0 0.00 0.01 0.01 80 1015.2
20260510124640 50 272 3.0 3.0 0.00 0.01 0.01 82 1014.9
20260510124136 50 155 0.0 0.0 0.00 0.01 0.01 82 1014.9
20260510123632 51 173 1.0 1.0 0.00 0.01 0.01 83 1014.9
20260510123128 50 157 0.0 0.0 0.00 0.01 0.01 85 1014.5
20260510122624 49 154 0.0 0.0 0.00 0.01 0.01 84 1014.5
20260510122120 49 251 2.0 2.0 0.00 0.01 0.01 85 1014.9
20260510121617 49 164 0.0 0.0 0.00 0.01 0.01 86 1014.9
20260510121115 49 122 0.0 0.0 0.00 0.01 0.01 88 1014.9
20260510120613 49 279 4.0 5.0 0.00 0.01 0.01 88 1014.9
20260510120108 48 161 0.0 0.0 0.00 0.01 0.01 90 1014.9
20260510115604 48 162 0.0 0.0 0.00 0.01 0.01 92 1014.2
20260510115102 48 164 0.0 0.0 0.00 0.01 0.01 93 1014.2
20260510114557 48 160 0.0 0.0 0.00 0.01 0.01 93 1013.9
20260510114054 48 165 0.0 0.0 0.00 0.01 0.01 94 1013.9
20260510113549 48 155 0.0 0.0 0.00 0.01 0.01 94 1013.5
20260510113047 48 161 0.0 0.0 0.00 0.01 0.01 94 1013.9
20260510112543 49 159 0.0 0.0 0.00 0.01 0.01 93 1013.5
20260510112040 48 160 0.0 0.0 0.00 0.01 0.01 92 1013.5
20260510111536 48 160 0.0 0.0 0.00 0.01 0.01 92 1012.7
20260510111032 48 162 0.0 0.0 0.00 0.01 0.01 93 1013.1
20260510110528 48 169 0.0 0.0 0.00 0.01 0.01 94 1013.1
20260510110025 48 171 0.0 0.0 0.00 0.01 0.01 94 1013.1
20260510105520 48 180 0.0 0.0 0.00 0.01 0.01 97 1012.7
20260510105015 47 155 0.0 0.0 0.00 0.01 0.01 99 1012.7
20260510104512 47 171 0.0 0.0 0.00 0.01 0.01 99 1012.7
20260510104009 47 244 3.0 3.0 0.00 0.01 0.01 99 1012.4
20260510103506 48 155 0.0 0.0 0.00 0.01 0.01 99 1012.1
20260510103001 48 167 0.0 0.0 0.00 0.01 0.01 99 1012.1
20260510102458 48 148 1.0 1.0 0.00 0.01 0.01 99 1012.1
20260510101954 48 172 0.0 0.0 0.00 0.01 0.01 99 1012.1
20260510101452 48 183 1.0 1.0 0.00 0.01 0.01 99 1011.7
20260510100950 48 186 2.0 2.0 0.00 0.01 0.01 99 1011.7
20260510100446 48 263 1.0 2.0 0.00 0.01 0.01 99 1011.7
20260510095943 49 318 2.0 3.0 0.00 0.01 0.01 99 1011.7
20260510095438 49 165 0.0 0.0 0.00 0.01 0.01 99 1011.4
20260510094937 50 244 1.0 1.0 0.00 0.01 0.01 99 1011.4
20260510094432 50 245 0.0 0.0 0.00 0.01 0.01 99 1011.4
20260510093928 50 169 0.0 0.0 0.00 0.01 0.01 99 1011.1
20260510093424 50 157 0.0 0.0 0.00 0.01 0.01 99 1011.1
20260510092921 50 161 0.0 0.0 0.00 0.01 0.01 99 1010.7
20260510092418 50 160 0.0 0.0 0.00 0.01 0.01 99 1010.7
20260510091912 50 153 0.0 0.0 0.00 0.01 0.01 99 1011.1
20260510091409 50 163 0.0 0.0 0.00 0.01 0.01 99 1010.7
20260510090907 50 190 0.0 0.0 0.00 0.01 0.01 99 1010.7
20260510090403 50 157 0.0 0.0 0.00 0.01 0.01 99 1010.7
20260510085859 50 154 0.0 0.0 0.00 0.01 0.01 99 1010.4
20260510085354 50 161 0.0 0.0 0.00 0.01 0.01 99 1010.4
20260510084850 50 159 0.0 0.0 0.00 0.01 0.01 99 1010.4
20260510084348 50 174 1.0 1.0 0.00 0.01 0.01 99 1010.4
20260510083844 49 159 0.0 0.0 0.00 0.01 0.01 99 1010.7
20260510083340 49 159 0.0 0.0 0.00 0.01 0.01 99 1010.7
20260510082836 49 158 0.0 0.0 0.00 0.01 0.01 99 1010.4
20260510082333 49 169 0.0 0.0 0.00 0.01 0.01 99 1010.4
20260510081831 49 155 0.0 0.0 0.00 0.01 0.01 99 1010.4
20260510081328 49 159 0.0 0.0 0.00 0.01 0.01 99 1010.4
20260510080824 48 168 0.0 0.0 0.00 0.01 0.01 99 1010.0
20260510080313 48 175 0.0 0.0 0.00 0.01 0.01 99 1010.4
20260510075810 48 152 0.0 0.0 0.00 0.01 0.01 99 1009.7
20260510075308 48 167 0.0 0.0 0.00 0.01 0.01 99 1010.0
20260510074804 48 155 0.0 0.0 0.00 0.01 0.01 99 1009.7
20260510074301 48 155 0.0 0.0 0.00 0.01 0.01 99 1009.7
20260510073757 48 155 0.0 0.0 0.00 0.01 0.01 99 1009.7
20260510073253 48 160 0.0 0.0 0.00 0.01 0.01 99 1010.0
20260510072749 48 160 0.0 0.0 0.00 0.01 0.01 99 1009.7
20260510072246 47 158 0.0 0.0 0.00 0.01 0.01 99 1010.0
20260510071742 47 157 0.0 0.0 0.00 0.01 0.01 99 1009.7
20260510071239 47 158 0.0 0.0 0.00 0.01 0.01 99 1009.7
20260510070738 47 158 0.0 0.0 0.00 0.01 0.01 99 1009.4
20260510070235 47 157 0.0 0.0 0.00 0.01 0.01 99 1009.7
20260510065734 47 158 0.0 0.0 0.00 0.01 0.01 99 1009.0
20260510065231 48 158 0.0 0.0 0.00 0.01 0.01 99 1009.7
20260510064728 48 158 0.0 0.0 0.00 0.01 0.01 99 1009.4
20260510064226 48 157 0.0 0.0 0.00 0.01 0.01 99 1009.4
20260510063722 48 155 0.0 0.0 0.00 0.01 0.01 99 1009.4
20260510063218 47 157 0.0 0.0 0.00 0.01 0.01 99 1009.0
20260510062715 48 156 0.0 0.0 0.00 0.01 0.01 99 1009.4
20260510062211 48 156 0.0 0.0 0.00 0.01 0.01 99 1009.0
20260510061706 48 157 0.0 0.0 0.00 0.01 0.01 99 1009.4
20260510061204 48 156 0.0 0.0 0.00 0.01 0.01 99 1009.4
20260510060700 48 155 0.0 0.0 0.00 0.01 0.01 99 1009.4
20260510060157 48 155 0.0 0.0 0.00 0.01 0.01 99 1009.4
20260510055653 48 155 0.0 0.0 0.00 0.01 0.01 99 1010.0
20260510055151 49 158 0.0 0.0 0.00 0.01 0.01 99 1009.7
20260510054646 49 158 0.0 0.0 0.00 0.01 0.01 99 1009.4
20260510054143 49 155 0.0 0.0 0.00 0.01 0.01 99 1009.4
20260510053641 48 154 0.0 0.0 0.00 0.01 0.01 99 1009.7
20260510053138 49 154 0.0 0.0 0.00 0.01 0.01 99 1009.7
20260510052634 49 155 0.0 0.0 0.00 0.01 0.01 99 1009.4
20260510052131 49 155 0.0 0.0 0.07 0.01 0.01 99 1009.4
20260510051626 49 156 0.0 0.0 0.00 0.00 0.00 99 1009.4
20260510051123 50 154 0.0 0.0 0.00 0.00 0.00 99 1009.4
20260510050621 50 157 0.0 0.0 0.00 0.00 0.00 99 1009.4
20260510050118 50 158 0.0 0.0 0.00 0.00 0.00 99 1009.4
20260510045615 50 156 0.0 0.0 0.00 0.00 0.00 99 1009.4
20260510045111 51 155 0.0 0.0 0.00 0.00 0.00 99 1009.4
20260510044607 51 157 0.0 0.0 0.00 0.00 0.00 99 1009.4
20260510044105 52 160 0.0 0.0 0.00 0.00 0.00 99 1009.0
20260510043600 52 152 0.0 0.0 0.00 0.00 0.00 99 1009.4
20260510043056 52 154 0.0 0.0 0.00 0.00 0.00 99 1009.0
20260510042555 52 165 0.0 0.0 0.00 0.00 0.00 99 1009.0
20260510042050 52 157 0.0 0.0 0.00 0.00 0.00 99 1009.0
20260510041548 52 148 0.0 0.0 0.00 0.00 0.00 99 1009.4
20260510041045 52 106 0.0 1.0 0.00 0.00 0.00 99 1009.0
20260510040542 52 122 1.0 1.0 0.00 0.00 0.00 99 1008.7
20260510040038 52 188 0.0 0.0 0.00 0.25 0.25 99 1008.3
20260510035534 52 180 0.0 1.0 0.00 0.25 0.25 99 1008.7
20260510035033 52 163 2.0 2.0 0.00 0.25 0.25 99 1008.7
20260510034532 52 182 1.0 1.0 0.05 0.25 0.25 99 1008.7
20260510034029 52 152 1.0 2.0 0.05 0.25 0.25 99 1008.7
20260510033524 52 188 2.0 2.0 0.07 0.24 0.24 99 1008.7
20260510033023 52 213 3.0 5.0 0.05 0.23 0.23 99 1008.7
20260510032519 52 141 1.0 2.0 0.12 0.23 0.23 99 1008.7
20260510032014 52 175 2.0 2.0 0.05 0.21 0.21 99 1008.7
20260510031509 52 127 0.0 1.0 0.12 0.21 0.21 99 1008.7
20260510031006 52 128 2.0 2.0 0.14 0.20 0.20 99 1008.7
20260510030456 52 164 0.0 0.0 0.19 0.19 0.19 99 1009.0
20260510025953 52 164 1.0 1.0 0.12 0.17 0.17 99 1008.7
20260510025451 52 146 1.0 1.0 0.12 0.15 0.15 99 1009.4
20260510024948 53 154 0.0 0.0 0.17 0.14 0.14 99 1009.4
20260510024444 53 169 0.0 0.0 0.17 0.12 0.12 99 1009.7
20260510023940 53 165 0.0 0.0 0.24 0.11 0.11 99 1010.0
20260510023437 53 146 0.0 0.0 0.26 0.09 0.09 98 1009.7
20260510022933 53 184 0.0 0.0 0.19 0.07 0.07 96 1009.4
20260510022433 54 177 0.0 0.0 0.24 0.05 0.05 94 1009.4
20260510021931 55 149 1.0 1.0 0.24 0.04 0.04 92 1009.4
20260510021430 58 280 5.0 6.0 0.12 0.02 0.02 88 1009.4
20260510020926 58 209 4.0 6.0 0.00 0.00 0.00 86 1008.0
20260510020421 58 131 1.0 1.0 0.00 0.00 0.00 86 1007.7
20260510015917 58 162 0.0 1.0 0.00 0.00 0.00 86 1007.7
20260510015413 58 154 1.0 1.0 0.00 0.00 0.00 86 1007.7
20260510014908 58 150 1.0 2.0 0.00 0.00 0.00 86 1007.0
20260510014406 58 144 1.0 1.0 0.00 0.00 0.00 86 1007.7
20260510013903 58 151 1.0 1.0 0.00 0.00 0.00 86 1007.3
20260510013358 58 159 1.0 2.0 0.00 0.00 0.00 86 1007.7
20260510012858 58 156 1.0 1.0 0.00 0.00 0.00 85 1007.3
20260510012353 58 127 2.0 3.0 0.00 0.00 0.00 85 1007.3
20260510011848 58 153 0.0 2.0 0.00 0.00 0.00 85 1007.3
20260510011344 58 127 1.0 2.0 0.00 0.00 0.00 85 1007.3
20260510010840 58 156 1.0 2.0 0.00 0.00 0.00 85 1007.0
20260510010338 58 155 0.0 1.0 0.00 0.00 0.00 85 1007.0
20260510005834 58 210 1.0 2.0 0.00 0.00 0.00 86 1007.0
20260510005330 58 177 0.0 1.0 0.00 0.00 0.00 85 1007.3
20260510004828 58 166 0.0 0.0 0.00 0.00 0.00 85 1007.3
20260510004326 58 153 0.0 0.0 0.00 0.00 0.00 84 1007.0
20260510003823 58 160 0.0 0.0 0.00 0.00 0.00 84 1007.0
20260510003320 58 148 1.0 2.0 0.00 0.00 0.00 83 1007.0
20260510002818 59 164 0.0 0.0 0.00 0.00 0.00 82 1007.0
20260510002316 59 170 0.0 1.0 0.00 0.00 0.00 82 1007.0
20260510001812 59 162 1.0 1.0 0.00 0.00 0.00 81 1007.0
20260510001311 60 179 0.0 1.0 0.00 0.00 0.00 80 1006.7
20260510000806 60 148 4.0 5.0 0.00 0.00 0.00 80 1007.0
20260510000304 60 140 1.0 1.0 0.00 0.00 0.00 80 1007.0
20260509235801 60 158 0.0 0.0 0.00 0.00 0.00 79 1006.7
20260509235257 60 137 2.0 3.0 0.00 0.00 0.00 78 1006.7
20260509234753 60 116 3.0 7.0 0.00 0.00 0.00 78 1007.0
20260509234250 61 177 1.0 2.0 0.00 0.00 0.00 78 1007.0
20260509233748 61 147 1.0 2.0 0.00 0.00 0.00 77 1007.0
20260509233246 61 171 1.0 1.0 0.00 0.00 0.00 77 1007.0
20260509232741 61 168 1.0 1.0 0.00 0.00 0.00 77 1007.0
20260509232239 61 160 1.0 1.0 0.00 0.00 0.00 76 1006.7
20260509231735 62 145 3.0 3.0 0.00 0.00 0.00 76 1007.0
20260509231232 62 138 3.0 5.0 0.00 0.00 0.00 76 1006.7
20260509230730 62 146 1.0 2.0 0.00 0.00 0.00 76 1006.7
20260509230227 62 7 3.0 3.0 0.00 0.00 0.00 74 1006.7
20260509225721 62 200 3.0 5.0 0.00 0.00 0.00 74 1006.7
20260509225218 63 146 2.0 3.0 0.00 0.00 0.00 74 1006.7
20260509224714 63 234 6.0 7.0 0.00 0.00 0.00 73 1006.7
20260509224211 63 196 3.0 5.0 0.00 0.00 0.00 73 1006.7
20260509223708 63 178 3.0 5.0 0.00 0.00 0.00 72 1006.7
20260509223205 63 130 0.0 1.0 0.00 0.00 0.00 73 1007.0
20260509222702 63 182 0.0 1.0 0.00 0.00 0.00 73 1006.7
20260509222157 63 206 3.0 5.0 0.00 0.00 0.00 73 1007.0
20260509221653 63 81 4.0 5.0 0.00 0.00 0.00 73 1007.0
20260509221149 63 163 1.0 1.0 0.00 0.00 0.00 74 1007.0
20260509220645 63 186 2.0 2.0 0.00 0.00 0.00 73 1007.0
20260509220141 63 197 3.0 3.0 0.00 0.00 0.00 73 1007.0
20260509215638 63 136 3.0 3.0 0.00 0.00 0.00 73 1007.0
20260509215134 63 177 3.0 3.0 0.00 0.00 0.00 73 1007.0
20260509214632 62 184 3.0 3.0 0.00 0.00 0.00 73 1007.0
20260509214128 63 126 2.0 2.0 0.00 0.00 0.00 73 1007.0
20260509213625 63 212 2.0 2.0 0.00 0.00 0.00 73 1007.0
20260509213121 64 198 5.0 7.0 0.00 0.00 0.00 71 1007.0
20260509212619 63 196 3.0 3.0 0.00 0.00 0.00 73 1007.0
20260509212115 63 234 3.0 5.0 0.00 0.00 0.00 72 1007.0
20260509211611 64 191 3.0 3.0 0.00 0.00 0.00 71 1006.7
20260509211108 64 91 5.0 7.0 0.00 0.00 0.00 72 1007.0
20260509210605 63 192 2.0 3.0 0.00 0.00 0.00 72 1007.0
20260509205555 63 105 4.0 6.0 0.00 0.00 0.00 72 1007.0
20260509205051 64 132 3.0 5.0 0.00 0.00 0.00 71 1007.0
20260509204547 64 114 2.0 3.0 0.00 0.00 0.00 72 1007.0
20260509204045 64 105 6.0 9.0 0.00 0.00 0.00 70 1007.0
20260509203540 63 193 4.0 6.0 0.00 0.00 0.00 72 1007.0
20260509203039 64 231 8.0 10.0 0.00 0.00 0.00 70 1007.3
20260509202538 64 219 3.0 6.0 0.00 0.00 0.00 72 1007.0
20260509202034 64 144 0.0 1.0 0.00 0.00 0.00 73 1007.0
20260509201529 64 144 3.0 5.0 0.00 0.00 0.00 71 1007.3
20260509201027 64 206 3.0 5.0 0.00 0.00 0.00 72 1007.0
20260509200527 63 175 3.0 3.0 0.00 0.00 0.00 73 1007.3
20260509200024 64 194 1.0 1.0 0.00 0.00 0.00 71 1007.3
20260509195519 64 330 3.0 3.0 0.00 0.00 0.00 70 1007.3
20260509195020 63 198 2.0 3.0 0.00 0.00 0.00 72 1007.7
20260509194515 63 193 3.0 5.0 0.00 0.00 0.00 73 1007.3
20260509194013 63 165 0.0 1.0 0.00 0.00 0.00 78 1007.7
20260509193512 62 51 2.0 2.0 0.00 0.00 0.00 78 1007.7
20260509193009 62 159 1.0 1.0 0.00 0.00 0.00 77 1007.7
20260509192505 61 167 0.0 0.0 0.00 0.00 0.00 78 1007.7
20260509192000 61 167 2.0 2.0 0.00 0.00 0.00 78 1008.0
20260509191455 62 176 1.0 1.0 0.00 0.00 0.00 78 1008.0
20260509190952 60 168 0.0 0.0 0.00 0.00 0.00 81 1008.0
20260509190449 60 167 0.0 1.0 0.00 0.00 0.00 81 1008.3
20260509185947 60 152 1.0 2.0 0.00 0.00 0.00 80 1008.3
20260509185444 60 193 2.0 2.0 0.00 0.00 0.00 81 1008.3
20260509184941 62 161 0.0 1.0 0.00 0.00 0.00 80 1008.3
20260509184439 61 187 2.0 2.0 0.00 0.00 0.00 80 1008.7
20260509183935 60 200 1.0 2.0 0.00 0.00 0.00 80 1008.7
20260509183435 60 149 1.0 1.0 0.00 0.00 0.00 82 1008.7
20260509182931 60 193 1.0 3.0 0.00 0.00 0.00 83 1009.0
20260509182428 57 152 1.0 2.0 0.00 0.00 0.00 86 1009.0
20260509181925 57 154 1.0 1.0 0.00 0.00 0.00 86 1009.0
20260509181423 57 148 0.0 0.0 0.00 0.00 0.00 86 1009.0
20260509180920 58 134 1.0 1.0 0.00 0.00 0.00 85 1008.7
20260509180415 58 155 0.0 0.0 0.00 0.00 0.00 85 1008.7
20260509175912 58 154 1.0 1.0 0.00 0.00 0.00 86 1008.7
20260509175409 57 161 0.0 1.0 0.00 0.00 0.00 86 1009.0
20260509174905 57 159 0.0 0.0 0.00 0.00 0.00 86 1008.7
20260509174401 57 96 1.0 3.0 0.00 0.00 0.00 86 1008.7
20260509173858 57 164 0.0 1.0 0.00 0.00 0.00 85 1009.0
20260509173357 57 176 1.0 1.0 0.00 0.00 0.00 85 1009.0
20260509172854 57 165 1.0 1.0 0.00 0.00 0.00 85 1008.7
20260509172351 57 178 0.0 0.0 0.00 0.00 0.00 85 1009.0
20260509171847 57 167 2.0 2.0 0.00 0.00 0.00 84 1009.0
20260509171343 57 186 0.0 0.0 0.00 0.00 0.00 85 1009.0
20260509170839 57 153 0.0 0.0 0.00 0.00 0.00 84 1009.4
20260509170335 57 154 1.0 1.0 0.00 0.00 0.00 83 1009.4
20260509165830 58 159 0.0 0.0 0.00 0.00 0.00 82 1009.4
20260509165324 58 124 3.0 5.0 0.00 0.00 0.00 83 1009.4
20260509164821 58 157 0.0 1.0 0.00 0.00 0.00 82 1009.4
20260509164317 57 141 1.0 2.0 0.00 0.00 0.00 83 1009.4
20260509163814 56 156 1.0 1.0 0.00 0.00 0.00 85 1009.7
20260509163310 55 148 1.0 1.0 0.00 0.00 0.00 84 1009.7
20260509162809 55 181 1.0 2.0 0.00 0.00 0.00 84 1009.7
20260509162306 54 149 0.0 0.0 0.00 0.00 0.00 85 1009.7
20260509161759 54 101 1.0 1.0 0.00 0.00 0.00 85 1009.7
20260509161255 53 146 0.0 0.0 0.00 0.00 0.00 85 1010.0
20260509160751 53 147 2.0 3.0 0.00 0.00 0.00 85 1010.0
20260509160247 53 94 3.0 3.0 0.00 0.00 0.00 85 1010.0
20260509155742 53 154 0.0 0.0 0.00 0.00 0.00 85 1010.0
20260509155239 54 163 0.0 0.0 0.00 0.00 0.00 85 1010.0
20260509154735 54 174 2.0 3.0 0.00 0.00 0.00 84 1010.0
20260509154232 55 172 0.0 0.0 0.00 0.00 0.00 83 1010.0
20260509153730 55 157 0.0 0.0 0.00 0.00 0.00 82 1010.0
20260509153225 56 160 1.0 1.0 0.00 0.00 0.00 81 1010.4
20260509152722 56 117 0.0 1.0 0.00 0.00 0.00 81 1010.4
20260509152219 56 211 0.0 0.0 0.00 0.00 0.00 81 1010.4
20260509151715 56 157 0.0 0.0 0.00 0.00 0.00 82 1010.4
20260509151212 55 61 1.0 3.0 0.00 0.00 0.00 83 1010.4
20260509150710 55 165 0.0 0.0 0.00 0.00 0.00 82 1010.4